This is the latest recevied weather packets stored in our database for station/object SR9SMR. If no packets are shown the sender has not sent any weather packets the latest 10 day(s).
| Time | Temp. | Humidity | Pressure | Rain* | Wind** | Luminosity | Snow |
|---|---|---|---|---|---|---|---|
| 1787968029 | 13.89° C | 100% | 898.4 hPa | - | - | - | - |
| 1787967976 | 13.89° C | 100% | 901.3 hPa | - | - | - | - |
| 1787967901 | 14.44° C | 100% | 903.1 hPa | - | - | - | - |
| 1787967847 | 14.44° C | 100% | 898.1 hPa | - | - | - | - |
| 1787967772 | 14.44° C | 100% | 898.4 hPa | - | - | - | - |
| 1787967718 | 15° C | 100% | 900.3 hPa | - | - | - | - |
| 1787967643 | 15° C | 100% | 901.9 hPa | - | - | - | - |
| 1787967590 | 15.56° C | 100% | 901.3 hPa | - | - | - | - |
| 1787967515 | 15.56° C | 100% | 900.4 hPa | - | - | - | - |
| 1787967461 | 15.56° C | 100% | 900.4 hPa | - | - | - | - |
| 1787967396 | 16.11° C | 100% | 897 hPa | - | - | - | - |
| 1787967342 | 16.11° C | 100% | 896.7 hPa | - | - | - | - |
| 1787967267 | 17.78° C | 100% | 896.6 hPa | - | - | - | - |
| 1787967213 | 18.33° C | 100% | 898.4 hPa | - | - | - | - |
| 1787967139 | 19.44° C | 100% | 899.5 hPa | - | - | - | - |
| 1787967085 | 19.44° C | 100% | 899.3 hPa | - | - | - | - |
| 1787967010 | 19.44° C | 100% | 898.9 hPa | - | - | - | - |
| 1787966956 | 20° C | 100% | 898.8 hPa | - | - | - | - |
| 1787966881 | 19.44° C | 100% | 898.8 hPa | - | - | - | - |
| 1787966828 | 19.44° C | 100% | 898.8 hPa | - | - | - | - |
| 1787966817 | 19.44° C | 100% | 898.7 hPa | - | - | - | - |
| 1787966752 | 19.44° C | 100% | 898.7 hPa | - | - | - | - |
| 1787966698 | 19.44° C | 100% | 898.7 hPa | - | - | - | - |
| 1787966624 | 20° C | 100% | 898.5 hPa | - | - | - | - |
| 1787966570 | 20° C | 100% | 898.7 hPa | - | - | - | - |
* Rain since midnight (hover to see other rain measurements)
** Current wind speed in m/s (hover to see current wind gust speed)